[ hide orbit diagram ]
For accurate long-term ephemerides, please instead use our Horizons system.This orbit viewer was implemented using two-body methods, and hence should not be used for determining accurate long-term trajectories (over several years or decades) or planetary encounter circumstances.
Orbital Elements at Epoch 2459000.5 (2020-May-31.0) TDB
Reference: JPL 11 (heliocentric ecliptic J2000)
Element | Value | Uncertainty (1-sigma) | Units |
e | .06828867865392131 | 1.1531e-07 | |
a | 2.593548474979319 | 3.8718e-08 | au |
q | 2.416438476598089 | 3.1546e-07 | au |
i | 3.624321092700575 | 1.1337e-05 | deg |
node | 11.33905540870467 | 0.00013007 | deg |
peri | 27.06729534079466 | 0.00022144 | deg |
M | 8.243933478272128 | 0.00017199 | deg |
tp | 2458965.564098111611 (2020-Apr-26.06409811) | 0.00072839 | TDB |
period | 1525.597545512449 4.18 | 3.4162e-05 9.353e-08 | d yr |
n | .235973111689214 | 5.2841e-09 | deg/d |
Q | 2.77065847336055 | 4.1362e-08 | au |
|
| | Orbit Determination Parameters
Additional Information
|
[ show covariance matrix ]
Physical Parameter Table
Parameter |
Symbol |
Value |
Units |
Sigma |
Reference |
Notes |
absolute magnitude |
H |
17.6 |
|
n/a |
MPO495223 |
|
|
447825 (2007 TH332) Discovered 2007-Oct-11 by Spacewatch at Kitt Peak |
Reference: | Last Updated: 2015-10-28 |
|
|